| time (UTC) | temp F | wind direction | speed knots | gust knots | rain 1hr in | rain 24hr in | rain mn in | humidity % | barometer mb |
| 20260904141054 | 67 | 0 | 0.0 | 1.7 | 0.00 | 0.00 | 0.00 | 92 | 1021.9 |
| 20260904140555 | 66 | 0 | 0.0 | 1.7 | 0.00 | 0.00 | 0.00 | 92 | 1021.9 |
| 20260904140104 | 66 | 14 | 0.0 | 2.6 | 0.00 | 0.00 | 0.00 | 93 | 1021.9 |
| 20260904135557 | 65 | 0 | 0.0 | 2.6 | 0.00 | 0.00 | 0.00 | 93 | 1021.9 |
| 20260904135055 | 65 | 14 | 0.0 | 1.7 | 0.00 | 0.00 | 0.00 | 93 | 1021.8 |
| 20260904134607 | 64 | 0 | 0.0 | 1.7 | 0.00 | 0.00 | 0.00 | 93 | 1021.7 |
| 20260904134100 | 64 | 0 | 0.9 | 1.7 | 0.00 | 0.00 | 0.00 | 92 | 1021.6 |
| 20260904133554 | 63 | 14 | 0.9 | 1.7 | 0.00 | 0.00 | 0.00 | 93 | 1021.6 |
| 20260904133105 | 63 | 0 | 0.0 | 1.7 | 0.00 | 0.00 | 0.00 | 92 | 1021.6 |
| 20260904132556 | 63 | 14 | 0.9 | 1.7 | 0.00 | 0.00 | 0.00 | 92 | 1021.5 |
| 20260904132054 | 63 | 0 | 0.0 | 1.7 | 0.00 | 0.00 | 0.00 | 92 | 1021.5 |
| 20260904131613 | 62 | 14 | 0.0 | 1.7 | 0.00 | 0.00 | 0.00 | 92 | 1021.5 |
| 20260904131054 | 62 | 14 | 0.0 | 0.9 | 0.00 | 0.00 | 0.00 | 92 | 1021.5 |
| 20260904130555 | 62 | 0 | 0.0 | 1.7 | 0.00 | 0.00 | 0.00 | 91 | 1021.4 |
| 20260904130104 | 62 | 0 | 0.0 | 1.7 | 0.00 | 0.00 | 0.00 | 91 | 1021.2 |
| 20260904125555 | 62 | 14 | 0.0 | 1.7 | 0.00 | 0.00 | 0.00 | 91 | 1021.2 |
| 20260904125056 | 62 | 14 | 0.0 | 1.7 | 0.00 | 0.00 | 0.00 | 91 | 1021.0 |
| 20260904124606 | 63 | 0 | 0.0 | 0.9 | 0.00 | 0.00 | 0.00 | 92 | 1021.1 |
| 20260904124056 | 63 | 14 | 0.0 | 0.0 | 0.00 | 0.00 | 0.00 | 91 | 1021.0 |
| 20260904123554 | 63 | 0 | 0.0 | 0.0 | 0.00 | 0.00 | 0.00 | 91 | 1021.0 |
| 20260904123104 | 63 | 0 | 0.0 | 0.0 | 0.00 | 0.00 | 0.00 | 91 | 1021.0 |
| 20260904122554 | 63 | 0 | 0.0 | 0.0 | 0.00 | 0.00 | 0.00 | 91 | 1021.0 |
| 20260904122054 | 63 | 0 | 0.0 | 0.0 | 0.00 | 0.00 | 0.00 | 91 | 1020.9 |
| 20260904121601 | 63 | 0 | 0.0 | 0.0 | 0.00 | 0.00 | 0.00 | 91 | 1020.8 |
| 20260904121221 | 63 | 0 | 0.0 | 1.7 | 0.00 | 0.00 | 0.00 | 91 | 1020.7 |
| 20260904120555 | 63 | 0 | 0.0 | 1.7 | 0.00 | 0.00 | 0.00 | 91 | 1020.6 |
| 20260904120109 | 63 | 14 | 0.0 | 2.6 | 0.00 | 0.00 | 0.00 | 91 | 1020.7 |
| 20260904115554 | 63 | 0 | 0.9 | 2.6 | 0.00 | 0.00 | 0.00 | 91 | 1020.6 |
| 20260904115055 | 63 | 14 | 0.9 | 2.6 | 0.00 | 0.00 | 0.00 | 91 | 1020.6 |
| 20260904114610 | 64 | 14 | 0.0 | 0.9 | 0.00 | 0.00 | 0.00 | 91 | 1020.5 |
| 20260904114054 | 64 | 0 | 0.0 | 1.7 | 0.00 | 0.00 | 0.00 | 91 | 1020.4 |
| 20260904113555 | 64 | 0 | 0.0 | 1.7 | 0.00 | 0.00 | 0.00 | 91 | 1020.4 |
| 20260904113103 | 64 | 0 | 0.9 | 2.6 | 0.00 | 0.00 | 0.00 | 91 | 1020.4 |
| 20260904112554 | 64 | 14 | 0.9 | 2.6 | 0.00 | 0.00 | 0.00 | 91 | 1020.4 |
| 20260904112054 | 63 | 14 | 0.9 | 2.6 | 0.00 | 0.00 | 0.00 | 90 | 1020.3 |
| 20260904111604 | 64 | 15 | 0.9 | 2.6 | 0.00 | 0.00 | 0.00 | 90 | 1020.4 |
| 20260904111055 | 64 | 18 | 0.9 | 2.6 | 0.00 | 0.00 | 0.00 | 90 | 1020.5 |
| 20260904110554 | 64 | 18 | 0.0 | 1.7 | 0.00 | 0.00 | 0.00 | 90 | 1020.4 |
| 20260904110116 | 64 | 0 | 0.0 | 0.0 | 0.00 | 0.00 | 0.00 | 90 | 1020.6 |
| 20260904105557 | 64 | 0 | 0.0 | 0.0 | 0.00 | 0.00 | 0.00 | 90 | 1020.5 |
| 20260904105057 | 64 | 0 | 0.0 | 0.0 | 0.00 | 0.00 | 0.00 | 90 | 1020.5 |
| 20260904104604 | 64 | 0 | 0.0 | 0.0 | 0.00 | 0.00 | 0.00 | 90 | 1020.4 |
| 20260904104055 | 64 | 0 | 0.0 | 0.0 | 0.00 | 0.00 | 0.00 | 90 | 1020.4 |
| 20260904103554 | 64 | 0 | 0.0 | 0.9 | 0.00 | 0.00 | 0.00 | 89 | 1020.4 |
| 20260904103107 | 64 | 0 | 0.0 | 0.9 | 0.00 | 0.00 | 0.00 | 90 | 1020.4 |
| 20260904102555 | 64 | 0 | 0.0 | 1.7 | 0.00 | 0.00 | 0.00 | 90 | 1020.5 |
| 20260904102054 | 65 | 18 | 0.0 | 1.7 | 0.00 | 0.00 | 0.00 | 89 | 1020.5 |
| 20260904101603 | 65 | 18 | 0.0 | 1.7 | 0.00 | 0.00 | 0.00 | 90 | 1020.4 |
| 20260904101057 | 65 | 0 | 0.0 | 1.7 | 0.00 | 0.00 | 0.00 | 90 | 1020.4 |
| 20260904100558 | 65 | 18 | 0.0 | 1.7 | 0.00 | 0.00 | 0.00 | 90 | 1020.4 |
| 20260904100127 | 65 | 0 | 0.0 | 2.6 | 0.00 | 0.00 | 0.00 | 90 | 1020.4 |
| 20260904095554 | 65 | 18 | 0.9 | 2.6 | 0.00 | 0.00 | 0.00 | 89 | 1020.3 |
| 20260904095056 | 65 | 15 | 0.9 | 2.6 | 0.00 | 0.00 | 0.00 | 89 | 1020.5 |
| 20260904094605 | 65 | 342 | 0.0 | 1.7 | 0.00 | 0.00 | 0.00 | 89 | 1020.4 |
| 20260904094055 | 65 | 0 | 0.0 | 1.7 | 0.00 | 0.00 | 0.00 | 89 | 1020.4 |
| 20260904093554 | 65 | 0 | 0.0 | 1.7 | 0.00 | 0.00 | 0.00 | 89 | 1020.6 |
| 20260904093104 | 65 | 342 | 0.0 | 1.7 | 0.00 | 0.00 | 0.00 | 89 | 1020.5 |
| 20260904092558 | 65 | 0 | 0.0 | 0.0 | 0.00 | 0.00 | 0.00 | 89 | 1020.5 |
| 20260904092056 | 66 | 0 | 0.0 | 0.9 | 0.00 | 0.00 | 0.00 | 89 | 1020.4 |
| 20260904091601 | 66 | 0 | 0.0 | 1.7 | 0.00 | 0.00 | 0.00 | 89 | 1020.4 |
| 20260904091055 | 66 | 0 | 0.0 | 1.7 | 0.00 | 0.00 | 0.00 | 89 | 1020.4 |
| 20260904090555 | 66 | 0 | 0.0 | 1.7 | 0.00 | 0.00 | 0.00 | 89 | 1020.4 |
| 20260904090105 | 66 | 342 | 0.0 | 1.7 | 0.00 | 0.00 | 0.00 | 89 | 1020.6 |
| 20260904085557 | 66 | 0 | 0.0 | 1.7 | 0.00 | 0.00 | 0.00 | 89 | 1020.5 |
| 20260904085055 | 66 | 0 | 0.0 | 1.7 | 0.00 | 0.00 | 0.00 | 88 | 1020.6 |
| 20260904084612 | 66 | 0 | 0.0 | 0.9 | 0.00 | 0.00 | 0.00 | 88 | 1020.5 |
| 20260904084058 | 66 | 0 | 0.0 | 1.7 | 0.00 | 0.00 | 0.00 | 88 | 1020.6 |
| 20260904083554 | 66 | 0 | 0.0 | 2.6 | 0.00 | 0.00 | 0.00 | 88 | 1020.6 |
| 20260904083104 | 66 | 342 | 0.0 | 2.6 | 0.00 | 0.00 | 0.00 | 88 | 1020.6 |
| 20260904082554 | 66 | 342 | 0.0 | 2.6 | 0.00 | 0.00 | 0.00 | 88 | 1020.5 |
| 20260904082055 | 66 | 0 | 0.9 | 2.6 | 0.00 | 0.00 | 0.00 | 87 | 1020.5 |
| 20260904081600 | 66 | 0 | 0.0 | 2.6 | 0.00 | 0.00 | 0.00 | 87 | 1020.6 |
| 20260904081054 | 66 | 342 | 0.9 | 2.6 | 0.00 | 0.00 | 0.00 | 87 | 1020.6 |
| 20260904080556 | 67 | 342 | 0.0 | 1.7 | 0.00 | 0.00 | 0.00 | 86 | 1020.6 |
| 20260904080107 | 67 | 342 | 0.0 | 3.5 | 0.00 | 0.00 | 0.00 | 86 | 1020.7 |
| 20260904075556 | 67 | 342 | 0.9 | 3.5 | 0.00 | 0.00 | 0.00 | 85 | 1020.6 |
| 20260904075054 | 67 | 342 | 0.9 | 3.5 | 0.00 | 0.00 | 0.00 | 85 | 1020.6 |
| 20260904074614 | 68 | 336 | 1.7 | 3.5 | 0.00 | 0.00 | 0.00 | 84 | 1020.6 |
| 20260904074055 | 68 | 338 | 1.7 | 4.3 | 0.00 | 0.00 | 0.00 | 83 | 1020.6 |
| 20260904073555 | 68 | 340 | 1.7 | 4.3 | 0.00 | 0.00 | 0.00 | 82 | 1020.7 |
| 20260904073117 | 68 | 348 | 0.0 | 3.5 | 0.00 | 0.00 | 0.00 | 82 | 1020.7 |
| 20260904072555 | 68 | 0 | 0.0 | 4.3 | 0.00 | 0.00 | 0.00 | 82 | 1020.7 |
| 20260904072055 | 68 | 165 | 1.7 | 5.2 | 0.00 | 0.00 | 0.00 | 82 | 1020.6 |
| 20260904071609 | 68 | 160 | 2.6 | 5.2 | 0.00 | 0.00 | 0.00 | 82 | 1020.6 |
| 20260904071055 | 68 | 150 | 3.5 | 6.1 | 0.00 | 0.00 | 0.00 | 82 | 1020.5 |
| 20260904070556 | 68 | 148 | 3.5 | 7.0 | 0.00 | 0.00 | 0.00 | 82 | 1020.5 |
| 20260904070100 | 68 | 136 | 4.3 | 7.0 | 0.00 | 0.00 | 0.00 | 83 | 1020.5 |
| 20260904065554 | 68 | 136 | 3.5 | 6.1 | 0.00 | 0.00 | 0.00 | 84 | 1020.5 |
| 20260904065055 | 68 | 141 | 3.5 | 6.1 | 0.00 | 0.00 | 0.00 | 84 | 1020.6 |
| 20260904064602 | 68 | 136 | 4.3 | 6.1 | 0.00 | 0.00 | 0.00 | 85 | 1020.5 |
| 20260904064055 | 68 | 127 | 3.5 | 5.2 | 0.00 | 0.00 | 0.00 | 86 | 1020.6 |
| 20260904063555 | 67 | 116 | 1.7 | 3.5 | 0.00 | 0.00 | 0.00 | 86 | 1020.6 |
| 20260904063101 | 67 | 116 | 1.7 | 4.3 | 0.00 | 0.00 | 0.00 | 86 | 1020.5 |
| 20260904062555 | 67 | 116 | 2.6 | 4.3 | 0.00 | 0.00 | 0.00 | 86 | 1020.6 |
| 20260904062055 | 67 | 116 | 2.6 | 3.5 | 0.00 | 0.00 | 0.00 | 86 | 1020.6 |
| 20260904061600 | 67 | 116 | 2.6 | 3.5 | 0.00 | 0.00 | 0.00 | 86 | 1020.8 |
| 20260904061056 | 67 | 115 | 1.7 | 4.3 | 0.00 | 0.00 | 0.00 | 86 | 1020.6 |
| 20260904060556 | 67 | 116 | 2.6 | 4.3 | 0.00 | 0.00 | 0.00 | 86 | 1020.6 |
| 20260904060113 | 67 | 115 | 2.6 | 3.5 | 0.00 | 0.00 | 0.00 | 85 | 1020.7 |
| 20260904055554 | 68 | 58 | 0.0 | 1.7 | 0.00 | 0.00 | 0.00 | 85 | 1020.6 |
| 20260904055055 | 68 | 0 | 0.0 | 1.7 | 0.00 | 0.00 | 0.00 | 85 | 1020.5 |
| 20260904054606 | 68 | 0 | 0.0 | 1.7 | 0.00 | 0.00 | 0.00 | 85 | 1020.5 |
| 20260904054055 | 68 | 0 | 0.0 | 0.9 | 0.00 | 0.00 | 0.00 | 85 | 1020.6 |
| 20260904053555 | 68 | 0 | 0.0 | 0.9 | 0.00 | 0.00 | 0.00 | 85 | 1020.6 |
| 20260904053105 | 69 | 0 | 0.0 | 2.6 | 0.00 | 0.00 | 0.00 | 84 | 1020.7 |
| 20260904052555 | 69 | 0 | 0.0 | 2.6 | 0.00 | 0.00 | 0.00 | 84 | 1020.6 |
| 20260904052055 | 69 | 0 | 0.0 | 0.0 | 0.00 | 0.00 | 0.00 | 84 | 1020.6 |
| 20260904051601 | 69 | 0 | 0.0 | 0.0 | 0.00 | 0.00 | 0.00 | 84 | 1020.7 |
| 20260904051055 | 69 | 0 | 0.0 | 0.0 | 0.00 | 0.00 | 0.00 | 84 | 1020.7 |
| 20260904050554 | 69 | 0 | 0.0 | 0.0 | 0.00 | 0.00 | 0.00 | 84 | 1020.7 |
| 20260904050105 | 69 | 0 | 0.0 | 0.0 | 0.00 | 0.00 | 0.00 | 84 | 1020.9 |
| 20260904045555 | 69 | 0 | 0.0 | 0.0 | 0.00 | 0.00 | 0.00 | 83 | 1021.0 |
| 20260904045054 | 69 | 0 | 0.0 | 0.0 | 0.00 | 0.00 | 0.00 | 84 | 1021.2 |
| 20260904044600 | 70 | 0 | 0.0 | 0.0 | 0.00 | 0.00 | 0.00 | 83 | 1021.3 |
| 20260904044056 | 70 | 0 | 0.0 | 0.0 | 0.00 | 0.00 | 0.00 | 83 | 1021.3 |
| 20260904043554 | 70 | 0 | 0.0 | 0.0 | 0.00 | 0.00 | 0.00 | 83 | 1021.1 |
| 20260904043107 | 70 | 0 | 0.0 | 0.0 | 0.00 | 0.00 | 0.00 | 83 | 1021.1 |
| 20260904042559 | 70 | 0 | 0.0 | 0.0 | 0.00 | 0.00 | 0.00 | 83 | 1021.2 |
| 20260904042054 | 70 | 0 | 0.0 | 0.0 | 0.00 | 0.00 | 0.00 | 82 | 1021.2 |
| 20260904041606 | 70 | 0 | 0.0 | 0.0 | 0.00 | 0.00 | 0.00 | 81 | 1021.3 |
| 20260904041055 | 71 | 0 | 0.0 | 0.0 | 0.00 | 0.00 | 0.00 | 82 | 1021.1 |
| 20260904040555 | 70 | 0 | 0.0 | 0.0 | 0.00 | 0.00 | 0.00 | 82 | 1021.2 |
| 20260904040104 | 70 | 0 | 0.0 | 0.0 | 0.00 | 0.00 | 0.00 | 81 | 1021.1 |
| 20260904035555 | 70 | 0 | 0.0 | 0.0 | 0.00 | 0.00 | 0.00 | 82 | 1021.0 |
| 20260904035054 | 70 | 0 | 0.0 | 0.0 | 0.00 | 0.00 | 0.00 | 82 | 1021.0 |
| 20260904034600 | 70 | 0 | 0.0 | 0.0 | 0.00 | 0.00 | 0.00 | 82 | 1021.0 |
| 20260904034055 | 70 | 0 | 0.0 | 0.0 | 0.00 | 0.00 | 0.00 | 82 | 1021.0 |
| 20260904033555 | 70 | 0 | 0.0 | 0.0 | 0.00 | 0.00 | 0.00 | 82 | 1021.0 |
| 20260904033105 | 70 | 0 | 0.0 | 0.0 | 0.00 | 0.00 | 0.00 | 83 | 1021.0 |
| 20260904032554 | 70 | 0 | 0.0 | 0.0 | 0.00 | 0.00 | 0.00 | 83 | 1020.8 |
| 20260904032055 | 70 | 0 | 0.0 | 1.7 | 0.00 | 0.00 | 0.00 | 82 | 1020.7 |
| 20260904031603 | 70 | 0 | 0.0 | 2.6 | 0.00 | 0.00 | 0.00 | 82 | 1020.6 |
| 20260904031056 | 70 | 58 | 0.9 | 2.6 | 0.00 | 0.00 | 0.00 | 82 | 1020.6 |
| 20260904030555 | 70 | 58 | 1.7 | 2.6 | 0.00 | 0.00 | 0.00 | 82 | 1020.4 |
| 20260904030105 | 70 | 23 | 0.0 | 2.6 | 0.00 | 0.00 | 0.00 | 82 | 1020.2 |
| 20260904025557 | 70 | 0 | 0.0 | 0.0 | 0.00 | 0.00 | 0.00 | 82 | 1020.2 |
| 20260904025057 | 70 | 0 | 0.0 | 0.0 | 0.00 | 0.00 | 0.00 | 82 | 1020.2 |
| 20260904024602 | 70 | 0 | 0.0 | 2.6 | 0.00 | 0.00 | 0.00 | 82 | 1020.1 |
| 20260904024056 | 70 | 0 | 0.0 | 2.6 | 0.00 | 0.00 | 0.00 | 82 | 1020.1 |
| 20260904023554 | 70 | 1 | 0.9 | 2.6 | 0.00 | 0.00 | 0.00 | 82 | 1020.0 |
| 20260904023105 | 70 | 0 | 0.0 | 3.5 | 0.00 | 0.00 | 0.00 | 81 | 1019.9 |
| 20260904022555 | 71 | 1 | 0.9 | 3.5 | 0.00 | 0.00 | 0.00 | 80 | 1019.9 |
| 20260904022055 | 71 | 1 | 1.7 | 3.5 | 0.00 | 0.00 | 0.00 | 79 | 1019.9 |
| 20260904021606 | 71 | 359 | 0.0 | 2.6 | 0.00 | 0.00 | 0.00 | 79 | 1019.6 |
| 20260904021054 | 71 | 0 | 0.0 | 0.0 | 0.00 | 0.00 | 0.00 | 78 | 1019.7 |
| 20260904020557 | 71 | 0 | 0.0 | 0.0 | 0.00 | 0.00 | 0.00 | 78 | 1019.8 |
| 20260904020101 | 71 | 0 | 0.0 | 0.0 | 0.00 | 0.00 | 0.00 | 79 | 1019.7 |
| 20260904015555 | 71 | 0 | 0.0 | 0.0 | 0.00 | 0.00 | 0.00 | 78 | 1019.6 |
| 20260904015055 | 72 | 0 | 0.0 | 0.0 | 0.00 | 0.00 | 0.00 | 78 | 1019.6 |
| 20260904014608 | 72 | 0 | 0.0 | 0.0 | 0.00 | 0.00 | 0.00 | 78 | 1019.5 |
| 20260904014055 | 72 | 0 | 0.0 | 0.0 | 0.00 | 0.00 | 0.00 | 78 | 1019.4 |
| 20260904013556 | 72 | 0 | 0.0 | 0.0 | 0.00 | 0.00 | 0.00 | 78 | 1019.5 |
| 20260904013114 | 72 | 0 | 0.0 | 2.6 | 0.00 | 0.00 | 0.00 | 78 | 1019.5 |
| 20260904012555 | 72 | 0 | 0.0 | 4.3 | 0.00 | 0.00 | 0.00 | 78 | 1019.6 |
| 20260904012055 | 72 | 359 | 0.9 | 5.2 | 0.00 | 0.00 | 0.00 | 77 | 1019.5 |
| 20260904011601 | 73 | 360 | 0.9 | 5.2 | 0.00 | 0.00 | 0.00 | 77 | 1019.5 |
| 20260904011053 | 73 | 360 | 2.6 | 5.2 | 0.00 | 0.00 | 0.00 | 76 | 1019.5 |
| 20260904010554 | 73 | 333 | 1.7 | 2.6 | 0.00 | 0.00 | 0.00 | 75 | 1019.5 |
| 20260904010107 | 74 | 0 | 0.0 | 1.7 | 0.00 | 0.00 | 0.00 | 74 | 1019.3 |
| 20260904005554 | 74 | 0 | 0.0 | 2.6 | 0.00 | 0.00 | 0.00 | 74 | 1019.3 |
| 20260904005055 | 74 | 333 | 0.9 | 3.5 | 0.00 | 0.00 | 0.00 | 73 | 1019.6 |
| 20260904004603 | 75 | 333 | 0.9 | 3.5 | 0.00 | 0.00 | 0.00 | 71 | 1019.5 |
| 20260904004056 | 75 | 330 | 0.9 | 3.5 | 0.00 | 0.00 | 0.00 | 70 | 1019.5 |
| 20260904003555 | 76 | 311 | 1.7 | 7.0 | 0.00 | 0.00 | 0.00 | 69 | 1019.5 |
| 20260904003116 | 76 | 296 | 2.6 | 7.8 | 0.00 | 0.00 | 0.00 | 68 | 1019.4 |
| 20260904002554 | 76 | 314 | 4.3 | 9.6 | 0.00 | 0.00 | 0.00 | 66 | 1019.3 |
| 20260904002055 | 77 | 273 | 6.1 | 9.6 | 0.00 | 0.00 | 0.00 | 64 | 1019.4 |
| 20260904001605 | 79 | 289 | 4.3 | 9.6 | 0.00 | 0.00 | 0.00 | 59 | 1019.5 |
| 20260904001055 | 80 | 0 | 0.9 | 6.1 | 0.00 | 0.00 | 0.00 | 56 | 1019.3 |
| 20260904000555 | 80 | 290 | 2.6 | 6.1 | 0.00 | 0.00 | 0.00 | 56 | 1019.2 |
| 20260904000104 | 78 | 273 | 1.7 | 5.2 | 0.00 | 0.00 | 0.00 | 58 | 1019.2 |
| 20260903235555 | 76 | 254 | 2.6 | 5.2 | 0.00 | 0.00 | 0.00 | 63 | 1019.1 |
| 20260903235052 | 75 | 248 | 2.6 | 7.8 | 0.00 | 0.00 | 0.00 | 64 | 1019.1 |
| 20260903234604 | 75 | 252 | 1.7 | 7.8 | 0.00 | 0.00 | 0.00 | 64 | 1019.0 |
| 20260903234056 | 75 | 260 | 3.5 | 7.8 | 0.00 | 0.00 | 0.00 | 66 | 1019.1 |
| 20260903233556 | 76 | 241 | 2.6 | 11.3 | 0.00 | 0.00 | 0.00 | 69 | 1019.2 |
| 20260903233103 | 75 | 257 | 1.7 | 11.3 | 0.00 | 0.00 | 0.00 | 69 | 1019.4 |
| 20260903232552 | 75 | 295 | 6.1 | 13.0 | 0.00 | 0.00 | 0.00 | 69 | 1019.2 |
| 20260903232055 | 74 | 301 | 7.0 | 13.0 | 0.00 | 0.00 | 0.00 | 68 | 1019.2 |
| 20260903231600 | 75 | 344 | 7.0 | 11.3 | 0.00 | 0.00 | 0.00 | 71 | 1019.2 |
| 20260903231054 | 75 | 319 | 6.1 | 10.4 | 0.00 | 0.00 | 0.00 | 70 | 1019.1 |
| 20260903230556 | 75 | 288 | 5.2 | 11.3 | 0.00 | 0.00 | 0.00 | 69 | 1019.1 |
| 20260903230107 | 75 | 319 | 7.0 | 11.3 | 0.00 | 0.00 | 0.00 | 67 | 1019.0 |
| 20260903225553 | 76 | 295 | 4.3 | 9.6 | 0.00 | 0.00 | 0.00 | 67 | 1019.1 |
| 20260903225052 | 76 | 295 | 6.1 | 8.7 | 0.00 | 0.00 | 0.00 | 68 | 1019.1 |
| 20260903224610 | 75 | 276 | 4.3 | 10.4 | 0.00 | 0.00 | 0.00 | 68 | 1019.2 |
| 20260903224055 | 75 | 313 | 4.3 | 10.4 | 0.00 | 0.00 | 0.00 | 67 | 1019.1 |
| 20260903223557 | 75 | 300 | 6.1 | 8.7 | 0.00 | 0.00 | 0.00 | 69 | 1019.3 |
| 20260903223104 | 76 | 285 | 6.1 | 8.7 | 0.00 | 0.00 | 0.00 | 69 | 1019.2 |
| 20260903222553 | 76 | 296 | 2.6 | 6.1 | 0.00 | 0.00 | 0.00 | 71 | 1019.1 |
| 20260903222053 | 76 | 258 | 1.7 | 6.1 | 0.00 | 0.00 | 0.00 | 76 | 1019.0 |
| 20260903221604 | 74 | 235 | 0.9 | 6.1 | 0.00 | 0.00 | 0.00 | 76 | 1019.1 |
| 20260903221054 | 74 | 243 | 2.6 | 6.1 | 0.00 | 0.00 | 0.00 | 74 | 1018.8 |
| 20260903220554 | 75 | 255 | 3.5 | 6.1 | 0.00 | 0.00 | 0.00 | 72 | 1018.8 |
| 20260903220120 | 77 | 285 | 2.6 | 5.2 | 0.00 | 0.00 | 0.00 | 70 | 1018.8 |
| 20260903215556 | 78 | 248 | 2.6 | 4.3 | 0.00 | 0.00 | 0.00 | 68 | 1019.1 |
| 20260903215055 | 79 | 248 | 2.6 | 5.2 | 0.00 | 0.00 | 0.00 | 65 | 1019.1 |
| 20260903214600 | 80 | 271 | 2.6 | 5.2 | 0.00 | 0.00 | 0.00 | 64 | 1019.3 |
| 20260903214055 | 81 | 216 | 0.9 | 5.2 | 0.00 | 0.00 | 0.00 | 58 | 1019.3 |
| 20260903213554 | 82 | 188 | 0.9 | 5.2 | 0.00 | 0.00 | 0.00 | 54 | 1019.3 |
| 20260903213104 | 83 | 219 | 0.0 | 1.7 | 0.00 | 0.00 | 0.00 | 54 | 1019.1 |
| 20260903212553 | 83 | 0 | 0.0 | 3.5 | 0.00 | 0.00 | 0.00 | 50 | 1019.1 |
| 20260903212055 | 83 | 177 | 0.9 | 4.3 | 0.00 | 0.00 | 0.00 | 50 | 1019.2 |
| 20260903211604 | 83 | 186 | 0.0 | 4.3 | 0.00 | 0.00 | 0.00 | 49 | 1019.3 |
| 20260903211053 | 84 | 238 | 1.7 | 4.3 | 0.00 | 0.00 | 0.00 | 51 | 1019.3 |
| 20260903210552 | 85 | 209 | 0.9 | 3.5 | 0.00 | 0.00 | 0.00 | 46 | 1019.3 |
| 20260903210103 | 85 | 194 | 0.9 | 3.5 | 0.00 | 0.00 | 0.00 | 46 | 1019.4 |
| 20260903205556 | 85 | 162 | 0.9 | 4.3 | 0.00 | 0.00 | 0.00 | 46 | 1019.5 |
| 20260903205058 | 85 | 0 | 1.7 | 5.2 | 0.00 | 0.00 | 0.00 | 46 | 1019.4 |
| 20260903204600 | 84 | 0 | 0.9 | 6.1 | 0.00 | 0.00 | 0.00 | 46 | 1019.4 |
| 20260903204055 | 84 | 174 | 2.6 | 6.1 | 0.00 | 0.00 | 0.00 | 45 | 1019.5 |
| 20260903203555 | 84 | 327 | 0.9 | 3.5 | 0.00 | 0.00 | 0.00 | 46 | 1019.5 |
| 20260903203100 | 84 | 188 | 0.9 | 4.3 | 0.00 | 0.00 | 0.00 | 46 | 1019.6 |
| 20260903202558 | 84 | 0 | 0.9 | 4.3 | 0.00 | 0.00 | 0.00 | 46 | 1019.6 |
| 20260903202055 | 84 | 256 | 1.7 | 4.3 | 0.00 | 0.00 | 0.00 | 45 | 1019.7 |
| 20260903201606 | 84 | 231 | 0.9 | 7.0 | 0.00 | 0.00 | 0.00 | 46 | 1019.8 |
| 20260903201052 | 84 | 244 | 1.7 | 7.0 | 0.00 | 0.00 | 0.00 | 47 | 1019.9 |
| 20260903200555 | 84 | 164 | 3.5 | 7.0 | 0.00 | 0.00 | 0.00 | 46 | 1020.0 |
| 20260903200109 | 84 | 167 | 0.9 | 8.7 | 0.00 | 0.00 | 0.00 | 47 | 1020.1 |
| 20260903195552 | 84 | 172 | 3.5 | 9.6 | 0.00 | 0.00 | 0.00 | 46 | 1020.1 |
| 20260903195052 | 84 | 146 | 4.3 | 11.3 | 0.00 | 0.00 | 0.00 | 46 | 1020.1 |
| 20260903194603 | 84 | 173 | 5.2 | 11.3 | 0.00 | 0.00 | 0.00 | 47 | 1020.3 |
| 20260903194053 | 84 | 180 | 3.5 | 8.7 | 0.00 | 0.00 | 0.00 | 47 | 1020.3 |
| 20260903193555 | 85 | 156 | 4.3 | 8.7 | 0.00 | 0.00 | 0.00 | 46 | 1020.3 |
| 20260903193107 | 85 | 127 | 1.7 | 6.1 | 0.00 | 0.00 | 0.00 | 45 | 1020.4 |
| 20260903192555 | 85 | 82 | 1.7 | 6.1 | 0.00 | 0.00 | 0.00 | 45 | 1020.4 |
| 20260903192054 | 84 | 94 | 2.6 | 6.1 | 0.00 | 0.00 | 0.00 | 45 | 1020.4 |
| 20260903191604 | 84 | 285 | 0.9 | 6.1 | 0.00 | 0.00 | 0.00 | 46 | 1020.6 |
| 20260903191053 | 83 | 0 | 2.6 | 6.1 | 0.00 | 0.00 | 0.00 | 46 | 1020.6 |
| 20260903190552 | 83 | 176 | 2.6 | 6.1 | 0.00 | 0.00 | 0.00 | 47 | 1020.8 |
| 20260903185552 | 84 | 174 | 1.7 | 7.0 | 0.00 | 0.00 | 0.00 | 46 | 1020.9 |
| 20260903185052 | 84 | 105 | 3.5 | 8.7 | 0.00 | 0.00 | 0.00 | 46 | 1020.9 |
| 20260903184602 | 84 | 129 | 4.3 | 8.7 | 0.00 | 0.00 | 0.00 | 46 | 1020.9 |
| 20260903184057 | 84 | 48 | 1.7 | 4.3 | 0.00 | 0.00 | 0.00 | 46 | 1021.1 |
| 20260903183555 | 84 | 49 | 2.6 | 6.1 | 0.00 | 0.00 | 0.00 | 48 | 1021.0 |
| 20260903183102 | 83 | 7 | 2.6 | 6.1 | 0.00 | 0.00 | 0.00 | 48 | 1021.2 |
| 20260903182552 | 84 | 17 | 3.5 | 6.1 | 0.00 | 0.00 | 0.00 | 47 | 1021.3 |
| 20260903182059 | 84 | 18 | 2.6 | 5.2 | 0.00 | 0.00 | 0.00 | 47 | 1021.5 |
| 20260903181604 | 83 | 42 | 1.7 | 5.2 | 0.00 | 0.00 | 0.00 | 49 | 1021.6 |
| 20260903181055 | 83 | 355 | 2.6 | 7.0 | 0.00 | 0.00 | 0.00 | 47 | 1021.7 |
| 20260903180558 | 83 | 339 | 3.5 | 7.0 | 0.00 | 0.00 | 0.00 | 47 | 1021.9 |
| 20260903180110 | 83 | 29 | 1.7 | 5.2 | 0.00 | 0.00 | 0.00 | 50 | 1022.0 |
| 20260903175558 | 83 | 25 | 2.6 | 6.1 | 0.00 | 0.00 | 0.00 | 50 | 1022.0 |
| 20260903175053 | 83 | 1 | 1.7 | 6.1 | 0.00 | 0.00 | 0.00 | 50 | 1022.0 |
| 20260903174603 | 82 | 359 | 2.6 | 6.1 | 0.00 | 0.00 | 0.00 | 52 | 1022.0 |
| 20260903174055 | 82 | 352 | 3.5 | 6.1 | 0.00 | 0.00 | 0.00 | 50 | 1022.1 |
| 20260903173552 | 82 | 32 | 1.7 | 5.2 | 0.00 | 0.00 | 0.00 | 52 | 1022.2 |
| 20260903173101 | 81 | 3 | 1.7 | 6.1 | 0.00 | 0.00 | 0.00 | 52 | 1022.1 |
| 20260903172554 | 81 | 59 | 1.7 | 6.1 | 0.00 | 0.00 | 0.00 | 52 | 1022.2 |
| 20260903172058 | 80 | 46 | 4.3 | 6.1 | 0.00 | 0.00 | 0.00 | 53 | 1022.3 |
| 20260903171612 | 80 | 215 | 0.9 | 4.3 | 0.00 | 0.00 | 0.00 | 53 | 1022.3 |
| 20260903171058 | 80 | 243 | 1.7 | 5.2 | 0.00 | 0.00 | 0.00 | 53 | 1022.3 |
| 20260903170555 | 80 | 0 | 2.6 | 7.0 | 0.00 | 0.00 | 0.00 | 53 | 1022.3 |
| 20260903170110 | 80 | 124 | 2.6 | 7.0 | 0.00 | 0.00 | 0.00 | 53 | 1022.3 |
| 20260903165556 | 80 | 129 | 3.5 | 6.1 | 0.00 | 0.00 | 0.00 | 54 | 1022.3 |
| 20260903165052 | 79 | 37 | 0.9 | 6.1 | 0.00 | 0.00 | 0.00 | 57 | 1022.2 |
| 20260903164602 | 79 | 52 | 2.6 | 6.1 | 0.00 | 0.00 | 0.00 | 57 | 1022.2 |
| 20260903164055 | 79 | 42 | 1.7 | 4.3 | 0.00 | 0.00 | 0.00 | 59 | 1022.3 |
| 20260903163555 | 78 | 53 | 2.6 | 4.3 | 0.00 | 0.00 | 0.00 | 61 | 1022.1 |
| 20260903163102 | 78 | 8 | 1.7 | 4.3 | 0.00 | 0.00 | 0.00 | 62 | 1022.3 |
| 20260903162555 | 77 | 358 | 1.7 | 4.3 | 0.00 | 0.00 | 0.00 | 62 | 1022.2 |
| 20260903162055 | 77 | 354 | 1.7 | 3.5 | 0.00 | 0.00 | 0.00 | 63 | 1022.3 |
| 20260903161608 | 77 | 354 | 0.9 | 2.6 | 0.00 | 0.00 | 0.00 | 64 | 1022.2 |
| 20260903161055 | 76 | 354 | 0.9 | 3.5 | 0.00 | 0.00 | 0.00 | 64 | 1022.3 |
| 20260903160555 | 76 | 354 | 1.7 | 3.5 | 0.00 | 0.00 | 0.00 | 63 | 1022.3 |
| 20260903160105 | 76 | 354 | 1.7 | 4.3 | 0.00 | 0.00 | 0.00 | 65 | 1022.3 |
| 20260903155551 | 75 | 355 | 1.7 | 4.3 | 0.00 | 0.00 | 0.00 | 67 | 1022.3 |
| 20260903155054 | 75 | 354 | 0.0 | 2.6 | 0.00 | 0.00 | 0.00 | 67 | 1022.3 |
| 20260903154604 | 75 | 354 | 0.9 | 2.6 | 0.00 | 0.00 | 0.00 | 68 | 1022.3 |
| 20260903154056 | 74 | 353 | 0.9 | 2.6 | 0.00 | 0.00 | 0.00 | 68 | 1022.2 |
| 20260903153557 | 74 | 353 | 0.9 | 2.6 | 0.00 | 0.00 | 0.00 | 68 | 1022.2 |
| 20260903153103 | 74 | 336 | 0.9 | 2.6 | 0.00 | 0.00 | 0.00 | 69 | 1022.1 |
| 20260903152552 | 74 | 328 | 0.9 | 2.6 | 0.00 | 0.00 | 0.00 | 68 | 1022.2 |
| 20260903152057 | 74 | 323 | 0.9 | 2.6 | 0.00 | 0.00 | 0.00 | 69 | 1022.2 |
| 20260903151612 | 74 | 0 | 0.0 | 1.7 | 0.00 | 0.00 | 0.00 | 69 | 1022.2 |
| 20260903151055 | 74 | 321 | 0.9 | 1.7 | 0.00 | 0.00 | 0.00 | 70 | 1022.2 |
| 20260903150556 | 73 | 321 | 0.9 | 1.7 | 0.00 | 0.00 | 0.00 | 69 | 1022.2 |
| 20260903150106 | 73 | 0 | 0.0 | 2.6 | 0.00 | 0.00 | 0.00 | 71 | 1022.3 |
| 20260903145555 | 73 | 320 | 0.9 | 2.6 | 0.00 | 0.00 | 0.00 | 70 | 1022.3 |
| 20260903145055 | 73 | 319 | 0.9 | 2.6 | 0.00 | 0.00 | 0.00 | 70 | 1022.3 |
| 20260903144608 | 73 | 294 | 0.0 | 2.6 | 0.00 | 0.00 | 0.00 | 70 | 1022.2 |
| 20260903144055 | 73 | 0 | 0.9 | 3.5 | 0.00 | 0.00 | 0.00 | 69 | 1022.2 |
| 20260903143554 | 73 | 294 | 0.0 | 3.5 | 0.00 | 0.00 | 0.00 | 69 | 1022.3 |
| 20260903143110 | 73 | 294 | 0.9 | 3.5 | 0.00 | 0.00 | 0.00 | 69 | 1022.2 |
| 20260903142556 | 73 | 0 | 0.0 | 3.5 | 0.00 | 0.00 | 0.00 | 69 | 1022.3 |
| 20260903142055 | 73 | 160 | 0.9 | 4.3 | 0.00 | 0.00 | 0.00 | 70 | 1022.4 |
| 20260903141601 | 73 | 158 | 1.7 | 6.1 | 0.00 | 0.00 | 0.00 | 70 | 1022.3 |